Погода в Межгорье

Украина / Закарпатская область     48°31′42″N   23°30′05″E
темп.,
°C
ветер,
м/с
пор.,
м/с
влажн.,
%
обл.,
%
осадки,
мм/ч
давл.,
гПа
погр.,
м
12 апреля, пн
пн1200:00+6вюв2281100 0.0 102323
03:00+6ююв1178100 0.0 102222
06:00+6юв2277100 0.0 102234
09:00+8вюв237219 0.0 1021125
12:00+13ююз355480 0.0 10201468
15:00+14юз345365 0.1 10191447
18:00+13юз235816 0.1 10181174
21:00+8в118499 0.1 102010
13 апреля, вт
вт1300:00+7всв218648 0.0 102013
03:00+7всв218441 0.0 101913
06:00+6св22866 0.0 101924
09:00+10св227298 0.0 1017215
12:00+16в1349100 0.0 10151559
15:00+13с1269100 0.4 1014198
18:00+9ссв2387100 0.3 1014152
21:00+7ссв3492100 0.4 1015211
14 апреля, ср
ср1400:00+5ссв2396100 0.0 1015166
03:00+5ссв2394100 0.1 1014214
06:00+4с2296100 0.6 1014190
09:00+3с2397100 2.5 1014247
12:00+2с2398100 1.6 1015335
15:00+1с3497100 3.7 1016333
18:00+1с3594100 1.1 1016412
21:00−1с3496100 1.9 1018315
15 апреля, чт
чт1500:00−1ссв2497100 1.8 1018261
03:00−2с2397100 2.3 1018168
06:00−2с139799 0.3 1018142
09:000сз1290100 0.5 1019433
12:00+2з1295100 0.6 1019377
15:00+1зюз1299100 1.8 1019202
18:00+1зюз11100100 1.1 1019137
21:000с1298100 1.6 1020149
16 апреля, пт
пт1600:00−2с1298100 0.0 102138
03:00−3с1198100 0.0 102132
06:00−4ссв1198100 0.0 102224
09:000сз1186100 0.0 1022290
12:00+3зюз1277100 0.0 1021992
15:00+3юз1278100 0.1 1021784
18:00+4юз117796 0.1 1021668
21:00−1всв109485 0.3 102310